Погода в Усть-Миле

Россия / Республика Саха (Якутия)     59°38′22″N   133°06′46″E
темп.,
°C
ветер,
м/с
пор.,
м/с
влажн.,
%
обл.,
%
осадки,
мм/ч
давл.,
гПа
погр.,
м
6 марта, сб
сб600:00−33з2298100 0.0 103125
03:00−35з229882 0.0 103119
06:00−36з129846 0.0 103119
09:00−32зюз239771 0.0 1030177
12:00−26з259298 0.0 1028606
15:00−22зсз358799 0.0 1026787
18:00−27ссз129497 0.0 102519
21:00−30юз019756 0.0 102619
7 марта, вс
вс700:00−32юз001000 0.0 102419
03:00−33ююз011008 0.0 102419
06:00−34ююв1110053 0.0 102419
09:00−29ююз119744 0.0 1023112
12:00−22юз129077 0.0 1020375
15:00−19ю128686 0.0 1018488
18:00−22вюв119499 0.0 101720
21:00−23вюв129497 0.0 101620
8 марта, пн
пн800:00−24в229884 0.1 101438
03:00−23всв119992 0.2 101242
06:00−22св1299100 0.2 100931
09:00−19св1297100 0.4 1007122
12:00−14вюв1293100 0.4 1005334
15:00−11ююз1392100 0.7 1003433
18:00−12в1197100 0.3 100321
21:00−12всв1297100 0.9 100354
9 марта, вт
вт900:00−14св2297100 0.4 100364
03:00−15ссв2297100 0.5 100454
06:00−18ссв129797 0.1 100722
09:00−14с129499 0.2 1009203
12:00−11зсз2390100 0.2 1011484
15:00−10зсз3590100 0.3 1012619
18:00−13зсз2694100 0.1 1015251
21:00−16зюз1195100 0.1 101720
10 марта, ср
ср1000:00−18зюз119897 0.0 101720
03:00−18ююз119894 0.1 101720
06:00−18ю229990 0.1 101721
09:00−14юв249590 0.1 1014154
12:00−8ююв368499 0.0 1011633
15:00−7ю3782100 0.0 1010891
18:00−9юз3791100 0.0 1010306
21:00−9юз41094100 0.5 1012448